Weather History for Pensacola NAS, FL

Change the Weather History Date:

Thursday, October 20, 2011

  Actual Average Record
Temperature  
Mean Temperature 54 °F -  
Max Temperature 66 °F 76 °F 84 °F (1998)
Min Temperature 42 °F 57 °F 39 °F (1996)
Degree Days  
Heating Degree Days 10    
Growing Degree Days 4 (Base 50)    
Moisture  
Dew Point 37 °F    
Average Humidity 60    
Maximum Humidity 93    
Minimum Humidity 29    
Precipitation  
Precipitation 0.00 in - - ()
Sea Level Pressure  
Sea Level Pressure 30.07 in    
Wind  
Wind Speed 4 mph (WNW)    
Max Wind Speed 10 mph    
Max Gust Speed 21 mph    
Visibility 10 miles    
Events      
Averages and records for this station are not official NWS values.
T = Trace of Precipitation, MM = Missing Value Source: NWS Daily Summary

Daily Weather History Graph

Daily Weather History Graph

Search for Another Location

Airport:

Trip Planner

Search our weather history database for the weather conditions in past years. The results will help you decide how hot, cold, wet, or windy it might be!

Date:

Astronomy

Oct. 20, 2011 Rise Set
Actual Time 6:54 AM CDT 6:13 PM CDT
Civil Twilight 6:30 AM CDT 6:37 PM CDT
Nautical Twilight 6:02 AM CDT 7:05 PM CDT
Astronomical Twilight 5:34 AM CDT 7:33 PM CDT
Moon 12:08 AM CDT (10/20) 1:54 PM CDT (10/20)
Length of Visible Light 12h 07m
Length of Day
11h 18m
Last Quarter, 44% of the Moon is Illuminated
Oct 20
Last Quarter
Oct 26
New
Nov 2
First Quarter
Nov 10
Full
Nov 18
Last Quarter

Hourly Weather History & Observations

Time (CDT) Temp. Windchill Dew Point Humidity Pressure Visibility Wind Dir Wind Speed Gust Speed Precip Events Conditions
12:56 AM 46.0 °F - 37.0 °F 71% 30.02 in 10.0 mi Calm Calm - N/A   Clear
1:56 AM 43.0 °F - 37.0 °F 80% 30.01 in 10.0 mi Calm Calm - N/A   Clear
2:56 AM 44.1 °F 42.5 °F 37.0 °F 76% 30.01 in 10.0 mi WNW 3.5 mph - N/A   Clear
3:56 AM 45.0 °F 43.5 °F 37.0 °F 74% 30.02 in 10.0 mi WNW 3.5 mph - N/A   Clear
4:56 AM 48.9 °F - 37.0 °F 64% 30.03 in 10.0 mi NW 8.1 mph - N/A   Clear
5:56 AM 46.0 °F 43.9 °F 37.0 °F 71% 30.06 in 10.0 mi NW 4.6 mph - N/A   Clear
6:56 AM 45.0 °F 43.5 °F 37.0 °F 74% 30.06 in 10.0 mi WNW 3.5 mph - N/A   Clear
7:56 AM 48.0 °F - 37.9 °F 68% 30.08 in 10.0 mi WNW 4.6 mph - N/A   Clear
8:56 AM 53.1 °F - 37.9 °F 57% 30.11 in 10.0 mi NW 6.9 mph - N/A   Clear
9:56 AM 57.0 °F - 37.9 °F 49% 30.12 in 10.0 mi Variable 5.8 mph - N/A   Clear
10:56 AM 59.0 °F - 36.0 °F 42% 30.11 in 10.0 mi NW 10.4 mph 20.7 mph N/A   Clear
11:56 AM 62.1 °F - 35.1 °F 37% 30.08 in 10.0 mi NW 10.4 mph 16.1 mph N/A   Clear
12:56 PM 63.0 °F - 35.1 °F 35% 30.06 in 10.0 mi West 8.1 mph 17.3 mph N/A   Clear
1:56 PM 64.0 °F - 34.0 °F 33% 30.03 in 10.0 mi Variable 6.9 mph - N/A   Clear
2:56 PM 66.0 °F - 33.1 °F 29% 30.02 in 10.0 mi Variable 6.9 mph - N/A   Clear
3:56 PM 64.9 °F - 33.1 °F 31% 30.03 in 10.0 mi West 8.1 mph - N/A   Clear
4:56 PM 64.0 °F - 34.0 °F 33% 30.03 in 10.0 mi WNW 6.9 mph - N/A   Clear
5:56 PM 60.1 °F - 36.0 °F 41% 30.05 in 10.0 mi WNW 3.5 mph - N/A   Clear
6:56 PM 55.0 °F - 37.0 °F 51% 30.06 in 10.0 mi WNW 3.5 mph - N/A   Clear
7:56 PM 46.9 °F - 39.9 °F 77% 30.08 in 10.0 mi Calm Calm - N/A   Clear
8:56 PM 44.1 °F - 39.0 °F 82% 30.11 in 10.0 mi Calm Calm - N/A   Clear
9:56 PM 45.0 °F 43.5 °F 39.9 °F 82% 30.12 in 10.0 mi NW 3.5 mph - N/A   Clear
10:56 PM 43.0 °F 41.3 °F 41.0 °F 93% 30.13 in 10.0 mi NW 3.5 mph - N/A   Clear
11:56 PM 42.1 °F - 39.9 °F 92% 30.14 in 10.0 mi Calm Calm - N/A   Clear